Hourly Weather Smolyanka

Today, 18 May, Tuesday

Time Temperature Precipitation Wind Pressure Humidity
00:00 +14°C° 0 mm 2 mps 731 mmHg 86%
01:00 +13°C° 0 mm 2 mps 731 mmHg 87%
02:00 +13°C° 0 mm 2 mps 731 mmHg 89%
03:00 +13°C° 0.1 mm 2 mps 730 mmHg 90%
04:00 +13°C° 0.1 mm 2 mps 730 mmHg 91%
05:00 +13°C° 0.1 mm 2 mps 730 mmHg 91%
06:00 +13°C° 0 mm 3 mps 730 mmHg 86%
07:00 +15°C° 0 mm 4 mps 730 mmHg 81%
08:00 +17°C° 0 mm 4 mps 730 mmHg 75%
09:00 +18°C° 0.7 mm 4 mps 730 mmHg 72%
10:00 +17°C° 0.7 mm 5 mps 729 mmHg 69%
11:00 +19°C° 0.7 mm 5 mps 729 mmHg 67%
12:00 +18°C° 1.7 mm 4 mps 729 mmHg 74%
13:00 +16°C° 1.7 mm 3 mps 729 mmHg 81%
14:00 +14°C° 1.7 mm 3 mps 729 mmHg 88%
15:00 +14°C° 1.1 mm 3 mps 729 mmHg 88%
16:00 +13°C° 1.1 mm 3 mps 728 mmHg 88%
17:00 +13°C° 1.1 mm 3 mps 728 mmHg 88%
18:00 +13°C° 0.7 mm 3 mps 728 mmHg 90%
19:00 +12°C° 0.7 mm 3 mps 728 mmHg 92%
20:00 +12°C° 0.7 mm 3 mps 728 mmHg 95%
21:00 +12°C° 0.4 mm 3 mps 728 mmHg 95%
22:00 +12°C° 0.4 mm 4 mps 728 mmHg 96%
23:00 +12°C° 0.4 mm 4 mps 728 mmHg 97%

Tomorrow, 19 May, Wednesday

Time Temperature Precipitation Wind Pressure Humidity
00:00 +12°C° 0.2 mm 4 mps 728 mmHg 97%
01:00 +12°C° 0.2 mm 4 mps 727 mmHg 97%
02:00 +12°C° 0.2 mm 3 mps 727 mmHg 97%
03:00 +12°C° 1.4 mm 4 mps 728 mmHg 96%
04:00 +12°C° 1.4 mm 4 mps 728 mmHg 96%
05:00 +12°C° 1.4 mm 5 mps 728 mmHg 96%
06:00 +11°C° 1.3 mm 6 mps 729 mmHg 95%
07:00 +11°C° 1.3 mm 7 mps 729 mmHg 94%
08:00 +11°C° 1.3 mm 8 mps 730 mmHg 92%
09:00 +10°C° 0.6 mm 8 mps 731 mmHg 92%
10:00 +10°C° 0.6 mm 9 mps 732 mmHg 91%
11:00 +10°C° 0.6 mm 9 mps 732 mmHg 90%
12:00 +11°C° 0.4 mm 8 mps 733 mmHg 88%
13:00 +11°C° 0.4 mm 8 mps 733 mmHg 87%
14:00 +12°C° 0.4 mm 7 mps 734 mmHg 86%
15:00 +13°C° 0.2 mm 6 mps 734 mmHg 84%
16:00 +13°C° 0.2 mm 6 mps 735 mmHg 82%
17:00 +14°C° 0.2 mm 5 mps 735 mmHg 80%
18:00 +13°C° 0 mm 4 mps 735 mmHg 84%
19:00 +12°C° 0 mm 3 mps 735 mmHg 87%
20:00 +12°C° 0 mm 2 mps 736 mmHg 90%
21:00 +12°C° 0 mm 2 mps 736 mmHg 91%
22:00 +10°C° 0 mm 2 mps 736 mmHg 92%
23:00 +9°C° 0 mm 2 mps 736 mmHg 94%

Day after tomorrow, 20 May, Thursday

Time Temperature Precipitation Wind Pressure Humidity
00:00 +9°C° 0 mm 2 mps 736 mmHg 94%
01:00 +9°C° 0 mm 2 mps 736 mmHg 93%
02:00 +8°C° 0 mm 2 mps 736 mmHg 93%
03:00 +8°C° 0 mm 2 mps 736 mmHg 93%
04:00 +9°C° 0 mm 1 mps 736 mmHg 94%
05:00 +9°C° 0 mm 1 mps 736 mmHg 94%
06:00 +11°C° 0 mm 1 mps 736 mmHg 90%
07:00 +12°C° 0 mm 1 mps 736 mmHg 86%
08:00 +13°C° 0 mm 1 mps 736 mmHg 82%
09:00 +14°C° 0.1 mm 2 mps 736 mmHg 80%
10:00 +15°C° 0.1 mm 2 mps 736 mmHg 77%
11:00 +14°C° 0.1 mm 3 mps 736 mmHg 75%
12:00 +14°C° 0 mm 3 mps 736 mmHg 77%
13:00 +14°C° 0 mm 3 mps 736 mmHg 79%
14:00 +13°C° 0 mm 3 mps 736 mmHg 82%
15:00 +13°C° 1.2 mm 3 mps 736 mmHg 86%
16:00 +12°C° 1.2 mm 3 mps 735 mmHg 91%
17:00 +12°C° 1.2 mm 3 mps 735 mmHg 95%
18:00 +11°C° 0.8 mm 3 mps 735 mmHg 95%
19:00 +11°C° 0.8 mm 3 mps 735 mmHg 95%
20:00 +11°C° 0.8 mm 3 mps 735 mmHg 96%
21:00 +11°C° 0.7 mm 4 mps 735 mmHg 96%
22:00 +11°C° 0.7 mm 4 mps 735 mmHg 96%
23:00 +10°C° 0.7 mm 5 mps 735 mmHg 96%

21 May, Friday

Time Temperature Precipitation Wind Pressure Humidity
00:00 +10°C° 0.1 mm 5 mps 735 mmHg 96%
01:00 +11°C° 0.1 mm 4 mps 735 mmHg 97%
02:00 +11°C° 0.1 mm 4 mps 735 mmHg 98%
03:00 +11°C° 0.1 mm 3 mps 736 mmHg 98%
04:00 +11°C° 0.1 mm 3 mps 736 mmHg 98%
05:00 +12°C° 0.1 mm 2 mps 736 mmHg 98%
06:00 +12°C° 0.1 mm 2 mps 736 mmHg 97%
07:00 +12°C° 0.1 mm 2 mps 736 mmHg 96%
08:00 +13°C° 0.1 mm 2 mps 737 mmHg 95%
09:00 +12°C° 0.2 mm 3 mps 737 mmHg 93%
10:00 +13°C° 0.2 mm 3 mps 737 mmHg 91%
11:00 +13°C° 0.2 mm 4 mps 738 mmHg 89%
12:00 +14°C° 0.3 mm 4 mps 738 mmHg 85%
13:00 +15°C° 0.3 mm 5 mps 738 mmHg 82%
14:00 +15°C° 0.3 mm 6 mps 738 mmHg 78%
15:00 +15°C° 0.2 mm 5 mps 738 mmHg 79%
16:00 +15°C° 0.2 mm 5 mps 738 mmHg 79%
17:00 +15°C° 0.2 mm 5 mps 739 mmHg 80%
18:00 +14°C° 0 mm 4 mps 739 mmHg 83%
19:00 +13°C° 0 mm 4 mps 739 mmHg 87%
20:00 +11°C° 0 mm 3 mps 739 mmHg 91%
21:00 +11°C° 0 mm 3 mps 739 mmHg 92%
22:00 +10°C° 0 mm 3 mps 740 mmHg 94%
23:00 +9°C° 0 mm 3 mps 740 mmHg 95%

22 May, Saturday

Time Temperature Precipitation Wind Pressure Humidity
00:00 +9°C° 0 mm 3 mps 740 mmHg 95%
01:00 +9°C° 0 mm 3 mps 740 mmHg 95%
02:00 +8°C° 0 mm 3 mps 740 mmHg 95%
03:00 +8°C° 0 mm 3 mps 740 mmHg 95%
04:00 +8°C° 0 mm 3 mps 740 mmHg 94%
05:00 +8°C° 0 mm 3 mps 740 mmHg 94%
06:00 +10°C° 0 mm 4 mps 740 mmHg 88%
07:00 +12°C° 0 mm 4 mps 740 mmHg 82%
08:00 +14°C° 0 mm 5 mps 740 mmHg 76%
09:00 +15°C° 0 mm 4 mps 740 mmHg 72%
10:00 +17°C° 0 mm 4 mps 740 mmHg 67%
11:00 +19°C° 0 mm 4 mps 740 mmHg 62%
12:00 +19°C° 0 mm 3 mps 740 mmHg 60%
13:00 +20°C° 0 mm 3 mps 740 mmHg 57%
14:00 +21°C° 0 mm 3 mps 740 mmHg 55%
15:00 +21°C° 0 mm 3 mps 740 mmHg 55%
16:00 +21°C° 0 mm 2 mps 739 mmHg 56%
17:00 +21°C° 0 mm 2 mps 739 mmHg 56%
18:00 +19°C° 0 mm 2 mps 739 mmHg 63%
19:00 +18°C° 0 mm 1 mps 739 mmHg 69%
20:00 +16°C° 0 mm 1 mps 739 mmHg 76%
21:00 +15°C° 0 mm 1 mps 739 mmHg 78%
22:00 +15°C° 0 mm 1 mps 739 mmHg 80%
23:00 +14°C° 0 mm 1 mps 739 mmHg 82%

23 May, Sunday

Time Temperature Precipitation Wind Pressure Humidity
00:00 +14°C° 0 mm 1 mps 739 mmHg 83%
01:00 +13°C° 0 mm 1 mps 739 mmHg 84%
02:00 +13°C° 0 mm 1 mps 739 mmHg 84%
03:00 +13°C° 0 mm 1 mps 739 mmHg 84%
04:00 +12°C° 0 mm 0 mps 739 mmHg 84%
05:00 +12°C° 0 mm 0 mps 739 mmHg 84%
06:00 +14°C° 0 mm 0 mps 739 mmHg 79%
07:00 +18°C° 0 mm 1 mps 739 mmHg 73%
08:00 +19°C° 0 mm 1 mps 740 mmHg 68%
09:00 +21°C° 0 mm 1 mps 740 mmHg 64%
10:00 +21°C° 0 mm 2 mps 740 mmHg 60%
11:00 +23°C° 0 mm 2 mps 740 mmHg 57%
12:00 +24°C° 0 mm 2 mps 740 mmHg 54%
13:00 +25°C° 0 mm 2 mps 740 mmHg 52%
14:00 +25°C° 0 mm 2 mps 739 mmHg 49%
15:00 +26°C° 0 mm 2 mps 739 mmHg 51%
16:00 +26°C° 0 mm 2 mps 739 mmHg 52%
17:00 +26°C° 0 mm 2 mps 739 mmHg 53%
18:00 +24°C° 0 mm 1 mps 739 mmHg 58%
19:00 +22°C° 0 mm 1 mps 739 mmHg 62%
20:00 +20°C° 0 mm 1 mps 739 mmHg 66%
21:00 +19°C° 0 mm 1 mps 739 mmHg 68%
22:00 +19°C° 0 mm 1 mps 739 mmHg 70%
23:00 +17°C° 0 mm 2 mps 739 mmHg 72%
Show more

We Need Your Consent

Meteoprog and our Service Providers may store and access personal data such as cookies, device identifiers or other similar technologies on your device and process such data to personalise content and ads, as well as provide social media features and to analyse the traffic.

  • Store and/or access information on your device

    Cookies, device identifiers or other information can be stored or accessed on your device for the purposes indicated above.

  • Personalised ads and content, ad and content measurement, audience insights, and products development

    Ads and content can be personalised based on a profile. More data can be added to better personalise ads and content. Ad and content performance can be measured. Insights about the audience who saw the ads and content can be derived. Such data can be used to develop or improve user’s experience, systems and software.

By clicking ‘I Agree’ you will allow the use of indicated cookies, device identifiers, web beacons or other similar technologies. Your settings can be changed in the browser on your device.

For certain purposes, legitimate interests may be relied on, rather than consent. You can read more about this in our Privacy and Cookie Policy.